LMRST-SAT

Last updated on Tue Jul 01 2025 00:03:44 GMT+0000 (Coordinated Universal Time)

1 40971U 15058H 25181.57676557 .00002856 00000+0 26047-3 0 9997 2 40971 64.7765 285.2045 0160463 190.1473 169.6389 14.87912361 61190
UTC large
Height (km)
Speed (km/s)
/
Latitude / Longitude
Inclination (degrees)
Orbital Period (minutes)
Azimuth
Elevation
Range (km)
Doppler Factor

Next 0 passes for location: London (51.5072 / 0.1276)

Sorry there are no passes over London.